| time (UTC) | temp F | wind direction | speed knots | gust knots | rain 1hr in | rain 24hr in | rain mn in | humidity % | barometer mb |
| 20260508070046 | 62 | 149 | 0.0 | 0.0 | 0.00 | 0.00 | 0.00 | 79 | 1014.2 |
| 20260508064545 | 62 | 149 | 0.0 | 1.7 | 0.00 | 0.00 | 0.00 | 78 | 1014.2 |
| 20260508063058 | 62 | 95 | 0.0 | 1.7 | 0.00 | 0.00 | 0.00 | 78 | 1014.0 |
| 20260508061547 | 62 | 176 | 0.0 | 0.0 | 0.00 | 0.00 | 0.00 | 79 | 1013.6 |
| 20260508060045 | 62 | 176 | 0.0 | 0.0 | 0.00 | 0.00 | 0.00 | 79 | 1013.5 |
| 20260508054542 | 62 | 115 | 0.0 | 1.7 | 0.00 | 0.00 | 0.00 | 79 | 1013.5 |
| 20260508053042 | 62 | 32 | 0.0 | 1.7 | 0.00 | 0.00 | 0.00 | 79 | 1014.8 |
| 20260508051541 | 62 | 279 | 0.0 | 1.7 | 0.00 | 0.00 | 0.00 | 79 | 1014.7 |
| 20260508050042 | 62 | 69 | 0.0 | 1.7 | 0.00 | 0.00 | 0.00 | 79 | 1014.5 |
| 20260508044536 | 62 | 319 | 0.0 | 2.6 | 0.00 | 0.00 | 0.00 | 78 | 1014.3 |
| 20260508043052 | 62 | 348 | 0.0 | 2.6 | 0.00 | 0.00 | 0.00 | 78 | 1014.9 |
| 20260508041538 | 62 | 295 | 2.6 | 6.1 | 0.00 | 0.00 | 0.00 | 78 | 1015.4 |
| 20260508040038 | 62 | 335 | 0.9 | 6.1 | 0.00 | 0.00 | 0.00 | 78 | 1014.4 |
| 20260508034533 | 62 | 94 | 0.0 | 3.5 | 0.00 | 0.00 | 0.00 | 77 | 1013.6 |
| 20260508033032 | 62 | 76 | 0.0 | 3.5 | 0.00 | 0.00 | 0.00 | 76 | 1013.6 |
| 20260508031531 | 62 | 83 | 0.9 | 3.5 | 0.00 | 0.00 | 0.00 | 77 | 1013.5 |
| 20260508030039 | 62 | 68 | 0.0 | 0.0 | 0.00 | 0.00 | 0.00 | 77 | 1014.5 |
| 20260508024531 | 63 | 94 | 0.0 | 0.0 | 0.00 | 0.00 | 0.00 | 77 | 1014.5 |
| 20260508023030 | 63 | 61 | 0.0 | 1.7 | 0.00 | 0.00 | 0.00 | 77 | 1015.0 |
| 20260508021530 | 63 | 346 | 0.0 | 0.0 | 0.00 | 0.00 | 0.00 | 76 | 1014.9 |
| 20260508020035 | 63 | 298 | 0.9 | 4.3 | 0.00 | 0.00 | 0.00 | 76 | 1014.7 |
| 20260508014528 | 63 | 289 | 2.6 | 6.1 | 0.00 | 0.00 | 0.00 | 75 | 1014.2 |
| 20260508013028 | 63 | 91 | 1.7 | 4.3 | 0.00 | 0.00 | 0.00 | 74 | 1012.2 |
| 20260508011528 | 63 | 299 | 0.9 | 2.6 | 0.00 | 0.00 | 0.00 | 75 | 1013.6 |
| 20260508010028 | 63 | 117 | 1.7 | 3.5 | 0.00 | 0.00 | 0.00 | 75 | 1012.3 |
| 20260508004526 | 63 | 66 | 1.7 | 4.3 | 0.00 | 0.00 | 0.00 | 74 | 1012.7 |
| 20260508003026 | 64 | 75 | 0.0 | 2.6 | 0.00 | 0.00 | 0.00 | 75 | 1013.0 |
| 20260508001541 | 64 | 78 | 0.9 | 3.5 | 0.00 | 0.00 | 0.00 | 74 | 1012.9 |
| 20260508000025 | 64 | 289 | 0.0 | 5.2 | 0.00 | 0.00 | 0.00 | 70 | 1012.7 |
| 20260507234525 | 65 | 320 | 4.3 | 12.2 | 0.00 | 0.00 | 0.00 | 70 | 1013.2 |
| 20260507233022 | 65 | 89 | 3.5 | 6.1 | 0.00 | 0.00 | 0.00 | 70 | 1013.3 |
| 20260507231531 | 65 | 40 | 3.5 | 8.7 | 0.00 | 0.00 | 0.00 | 71 | 1013.7 |
| 20260507230025 | 65 | 113 | 3.5 | 6.1 | 0.00 | 0.00 | 0.00 | 72 | 1013.7 |
| 20260507224531 | 66 | 116 | 0.0 | 3.5 | 0.00 | 0.00 | 0.00 | 72 | 1014.6 |
| 20260507223019 | 66 | 334 | 0.9 | 7.8 | 0.00 | 0.00 | 0.00 | 72 | 1014.7 |
| 20260507221521 | 67 | 324 | 0.9 | 4.3 | 0.00 | 0.00 | 0.00 | 73 | 1014.5 |
| 20260507220033 | 67 | 7 | 1.7 | 6.1 | 0.00 | 0.00 | 0.00 | 69 | 1015.2 |
| 20260507214517 | 67 | 87 | 0.0 | 2.6 | 0.00 | 0.00 | 0.00 | 68 | 1015.3 |
| 20260507213016 | 67 | 90 | 2.6 | 6.1 | 0.00 | 0.00 | 0.00 | 67 | 1014.7 |
| 20260507211515 | 67 | 86 | 2.6 | 6.1 | 0.00 | 0.00 | 0.00 | 66 | 1015.4 |
| 20260507210016 | 67 | 26 | 0.0 | 4.3 | 0.00 | 0.00 | 0.00 | 69 | 1015.6 |
| 20260507204515 | 68 | 26 | 0.9 | 7.0 | 0.00 | 0.00 | 0.00 | 65 | 1015.4 |
| 20260507203012 | 68 | 43 | 0.9 | 7.0 | 0.00 | 0.00 | 0.00 | 68 | 1015.4 |
| 20260507201511 | 67 | 158 | 0.9 | 8.7 | 0.00 | 0.00 | 0.00 | 69 | 1015.2 |
| 20260507200008 | 67 | 77 | 0.9 | 7.8 | 0.00 | 0.00 | 0.00 | 70 | 1014.8 |
| 20260507194505 | 66 | 37 | 1.7 | 7.8 | 0.00 | 0.00 | 0.00 | 71 | 1015.5 |
| 20260507193004 | 65 | 57 | 1.7 | 6.1 | 0.00 | 0.00 | 0.00 | 72 | 1016.0 |
| 20260507191503 | 65 | 350 | 0.9 | 3.5 | 0.00 | 0.00 | 0.00 | 74 | 1016.1 |
| 20260507190101 | 65 | 4 | 0.9 | 3.5 | 0.00 | 0.00 | 0.00 | 72 | 1016.3 |
| 20260507184605 | 64 | 78 | 0.9 | 4.3 | 0.00 | 0.00 | 0.00 | 75 | 1016.5 |
| 20260507183054 | 63 | 43 | 0.9 | 6.1 | 0.00 | 0.00 | 0.00 | 78 | 1016.9 |
| 20260507181600 | 61 | 14 | 1.7 | 7.8 | 0.00 | 0.00 | 0.00 | 81 | 1016.7 |
| 20260507180050 | 61 | 85 | 3.5 | 7.0 | 0.00 | 0.00 | 0.00 | 81 | 1016.8 |
| 20260507174555 | 61 | 108 | 0.9 | 5.2 | 0.00 | 0.00 | 0.00 | 82 | 1016.9 |
| 20260507173049 | 61 | 25 | 0.0 | 5.2 | 0.00 | 0.00 | 0.00 | 83 | 1016.3 |
| 20260507171550 | 60 | 326 | 0.9 | 6.1 | 0.00 | 0.00 | 0.00 | 80 | 1016.9 |
| 20260507170051 | 60 | 18 | 0.9 | 4.3 | 0.00 | 0.00 | 0.00 | 81 | 1016.8 |
| 20260507164547 | 60 | 80 | 0.9 | 7.0 | 0.00 | 0.07 | 0.00 | 82 | 1017.3 |
| 20260507163046 | 60 | 303 | 0.0 | 5.2 | 0.00 | 0.07 | 0.00 | 81 | 1017.4 |
| 20260507161545 | 60 | 303 | 1.7 | 6.1 | 0.00 | 0.07 | 0.00 | 82 | 1016.8 |
| 20260507160044 | 58 | 104 | 0.9 | 5.2 | 0.00 | 0.07 | 0.00 | 83 | 1016.3 |
| 20260507154547 | 58 | 316 | 1.7 | 6.1 | 0.00 | 0.09 | 0.00 | 84 | 1016.7 |
| 20260507153049 | 58 | 206 | 0.9 | 5.2 | 0.00 | 0.09 | 0.00 | 85 | 1017.1 |
| 20260507151540 | 58 | 1 | 1.7 | 6.1 | 0.00 | 0.09 | 0.00 | 86 | 1017.2 |
| 20260507150043 | 58 | 87 | 2.6 | 7.0 | 0.00 | 0.09 | 0.00 | 85 | 1016.8 |
| 20260507144538 | 58 | 21 | 0.9 | 7.8 | 0.00 | 0.09 | 0.00 | 86 | 1017.0 |
| 20260507143037 | 57 | 261 | 1.7 | 7.0 | 0.00 | 0.09 | 0.00 | 87 | 1017.3 |
| 20260507141537 | 57 | 56 | 0.9 | 5.2 | 0.00 | 0.09 | 0.00 | 88 | 1017.3 |
| 20260507140034 | 57 | 334 | 0.0 | 5.2 | 0.00 | 0.09 | 0.00 | 88 | 1017.2 |
| 20260507134541 | 57 | 359 | 1.7 | 8.7 | 0.00 | 0.09 | 0.00 | 89 | 1016.3 |
| 20260507133036 | 57 | 327 | 0.9 | 4.3 | 0.00 | 0.09 | 0.00 | 90 | 1017.0 |
| 20260507131550 | 57 | 49 | 0.9 | 5.2 | 0.00 | 0.09 | 0.00 | 90 | 1017.3 |
| 20260507130029 | 57 | 184 | 0.9 | 9.6 | 0.00 | 0.09 | 0.00 | 90 | 1016.5 |
| 20260507124528 | 57 | 357 | 0.0 | 7.0 | 0.00 | 0.09 | 0.00 | 90 | 1016.4 |
| 20260507123026 | 57 | 360 | 0.0 | 7.0 | 0.00 | 0.09 | 0.00 | 90 | 1015.8 |
| 20260507121525 | 57 | 125 | 0.0 | 3.5 | 0.00 | 0.09 | 0.00 | 89 | 1016.1 |
| 20260507120035 | 58 | 32 | 0.9 | 4.3 | 0.00 | 0.09 | 0.00 | 88 | 1015.7 |
| 20260507114521 | 58 | 239 | 0.0 | 4.3 | 0.00 | 0.09 | 0.00 | 88 | 1015.3 |
| 20260507113018 | 58 | 344 | 0.0 | 6.1 | 0.00 | 0.09 | 0.00 | 87 | 1015.2 |
| 20260507111515 | 58 | 18 | 0.9 | 4.3 | 0.00 | 0.09 | 0.00 | 86 | 1014.7 |
| 20260507110014 | 59 | 298 | 0.0 | 3.5 | 0.00 | 0.09 | 0.00 | 86 | 1014.9 |
| 20260507104513 | 59 | 38 | 0.9 | 4.3 | 0.00 | 0.09 | 0.00 | 86 | 1014.5 |
| 20260507103011 | 59 | 6 | 0.9 | 5.2 | 0.00 | 0.09 | 0.00 | 86 | 1014.5 |
| 20260507101509 | 59 | 7 | 0.0 | 4.3 | 0.00 | 0.09 | 0.00 | 86 | 1014.6 |
| 20260507100009 | 59 | 8 | 0.0 | 2.6 | 0.00 | 0.09 | 0.00 | 86 | 1014.4 |
| 20260507094507 | 60 | 286 | 0.0 | 1.7 | 0.00 | 0.09 | 0.00 | 86 | 1014.4 |
| 20260507093006 | 60 | 284 | 0.0 | 2.6 | 0.00 | 0.09 | 0.00 | 86 | 1014.0 |
| 20260507091505 | 60 | 314 | 0.0 | 2.6 | 0.00 | 0.09 | 0.00 | 86 | 1014.2 |
| 20260507090008 | 60 | 66 | 0.0 | 1.7 | 0.00 | 0.09 | 0.00 | 86 | 1014.4 |
| 20260507084509 | 60 | 282 | 0.0 | 1.7 | 0.00 | 0.09 | 0.00 | 87 | 1014.0 |
| 20260507083005 | 59 | 66 | 0.0 | 0.9 | 0.00 | 0.09 | 0.00 | 88 | 1014.2 |
| 20260507081502 | 60 | 35 | 0.0 | 0.9 | 0.00 | 0.09 | 0.00 | 88 | 1014.3 |
| 20260507080006 | 59 | 35 | 0.0 | 0.9 | 0.00 | 0.09 | 0.00 | 89 | 1014.3 |
| 20260507074501 | 60 | 35 | 0.0 | 0.0 | 0.00 | 0.09 | 0.00 | 89 | 1014.0 |
| 20260507073100 | 60 | 35 | 0.0 | 0.0 | 0.00 | 0.09 | 0.00 | 89 | 1014.1 |
| 20260507071600 | 60 | 35 | 0.0 | 0.9 | 0.00 | 0.09 | 0.00 | 88 | 1014.0 |